User: anonymous   Login
Location: NJAA Observatory
(40.6819°N, 74.8979°W)
Time: 20:20:22
(UTC-04:00)
Language:

Cosmos 1633 - Orbit

View from above orbital plane
View from above orbital plane
View from above satellite
View from above satellite

Ground track
Ground track

The orbit data is extracted from the following two-line orbital elements,

1 15592U 85020A   15244.55163134  .00002683  00000-0  10713-3 0  9995
2 15592  82.5363 253.6401 0014077 332.7709 149.5481 15.24626574664406
Epoch (UTC): 01 September 2015 13:14:20
Eccentricity: 0.0014077
inclination: 82.5363°
perigee height: 482 km
apogee height: 501 km
right ascension of ascending node: 253.6401°
argument of perigee: 332.7709°
revolutions per day: 15.24626574
mean anomaly at epoch: 149.5481°
orbit number at epoch: 66440

The dashed part of the orbit path shows where the satellite is in the earth's shadow,  

DLR